Regional Weather Roundup
Issued by NWS

Home | Current Version | Previous Version | Text Only | Print | Product List | Glossary Off
Versions: 1 2 3 4 5 6 7 8 9 10 11 12 13 14 15 16 17 18 19 20 21 22 23 24 25 26 27 28 29 30 31 32 33 34 35 36 37 38 39 40 41 42 43 44 45 46 47 48 49 50

000
ASUS44 KMEG 252010
RWRTN
TENNESSEE HOURLY STATE WEATHER ROUNDUP
NATIONAL WEATHER SERVICE MEMPHIS TN
300 PM CDT MON JUL 25 2016

TNZ002-004-019-021-049-052-054-088>092-252100-
WEST TENNESSEE

CITY           SKY/WX    TMP DP  RH WIND       PRES   REMARKS
MEMPHIS INTL   PTSUNNY   95  76  53 SW7       29.96F HX 108
NWS MEMPHIS      N/A     94 N/A N/A MISG        N/A
JACKSON        MOSUNNY   96  71  44 SW6G16    29.97F HX 103
DYERSBURG      PTSUNNY  N/A N/A N/A MISG        N/A  THUNDER
UNION CITY     MOSUNNY   93  79  62 W9        29.95F HX 110
PARIS          SUNNY     91  75  59 SW7       29.99S HX 102
LEXINGTON      SUNNY     97  68  38 SW9       29.97F HX 101
$$

TNZ008-025-027-028-033-062-065-066-252100-
NORTH MIDDLE TENNESSEE

CITY           SKY/WX    TMP DP  RH WIND       PRES   REMARKS
NASHVILLE      LGT RAIN  88  72  58 W3        30.00F HX  94
CLARKSVILLE    CLOUDY    90  70  51 SW10      29.98F HX  95
SMYRNA         MOSUNNY   97  71  42 W6        29.99F HX 104
COOKEVILLE     SUNNY     97  75  49 NW5       30.02F HX 109
CROSSVILLE     CLOUDY    89  70  53 W9        30.08F HX  94
$$

TNZ061-075-076-078-094-096-097-252100-
SOUTH MIDDLE TENNESSEE

CITY           SKY/WX    TMP DP  RH WIND       PRES   REMARKS
FAYETTEVILLE   MOSUNNY   95  66  38 W9        30.01F HX  98
TULLAHOMA      MOSUNNY   93  68  43 SW7       30.04F HX  97
WINCHESTER     SUNNY     84  73  70 SE5       30.03F HX  91
MCMINNVILLE    SUNNY     93  72  49 SW9       30.03S HX 100
COLUMBIA       SUNNY     99  66  34 S9        29.98F HX 102
SHELBYVILLE    MOSUNNY   97  75  49 VRB6      30.01F HX 109
$$

TNZ017-018-042-046-047-252100-
NORTHEAST TENNESSEE

CITY           SKY/WX    TMP DP  RH WIND       PRES   REMARKS
TRI CITIES     MOSUNNY   96  67  38 W8        30.01F HX 100
ELIZABETHTON   SUNNY     93  70  46 SW6G15    30.01F HX  99
$$

TNZ012-013-036-069-073-074-252100-
CENTRAL EAST TENNESSEE

CITY           SKY/WX    TMP DP  RH WIND       PRES   REMARKS
KNOXVILLE      MOSUNNY   97  63  32 W9        29.99F HX  98
OAK RIDGE      SUNNY     96  67  38 W8        30.02F HX 100
GATLINBURG     SUNNY     84  70  61 E6        30.01F
MORRISTOWN     MOSUNNY   91  72  52 S12G18    30.01F HX  98
$$

TNZ083-085-099-252100-
SOUTHEAST TENNESSEE

CITY           SKY/WX    TMP DP  RH WIND       PRES   REMARKS
CHATTANOOGA    PTSUNNY   92  68  45 S18       30.00F HX  96
$$

SKY/WX REPORTED AS FAIR MEANS FEW OR NO CLOUDS BELOW
12 THOUSAND FEET.




USA.gov is the U.S. government's official web portal to all federal, state and local government web resources and services.